TimeCDT,TemperatureF,Dew PointF,Humidity,Sea Level PressureIn,VisibilityMPH,Wind Direction,Wind SpeedMPH,Gust SpeedMPH,PrecipitationIn,Events,Conditions,WindDirDegrees,DateUTC
12:53 AM,57.9,55.0,90,29.88,10.0,Calm,Calm,-,0.12,,Overcast,0,2012-09-09 05:53:00
1:53 AM,57.0,55.0,93,29.85,10.0,South,4.6,-,N/A,,Mostly Cloudy,190,2012-09-09 06:53:00
2:53 AM,57.0,55.9,96,29.86,5.0,ENE,4.6,-,N/A,,Overcast,60,2012-09-09 07:53:00
3:53 AM,57.9,55.9,93,29.88,10.0,ENE,3.5,-,N/A,,Overcast,70,2012-09-09 08:53:00
4:53 AM,57.9,55.0,90,29.90,10.0,Calm,Calm,-,N/A,,Overcast,0,2012-09-09 09:53:00
5:53 AM,55.0,53.1,93,29.91,8.0,Calm,Calm,-,N/A,,Clear,0,2012-09-09 10:53:00
6:06 AM,53.6,53.6,100,29.92,1.5,Calm,Calm,-,N/A,,Partly Cloudy,0,2012-09-09 11:06:00
6:19 AM,55.4,53.6,94,29.94,3.0,Calm,Calm,-,N/A,,Mostly Cloudy,0,2012-09-09 11:19:00
6:53 AM,57.0,55.0,93,29.95,6.0,NNW,3.5,-,N/A,,Overcast,330,2012-09-09 11:53:00
7:53 AM,60.1,57.0,90,29.97,10.0,WNW,3.5,-,N/A,,Overcast,290,2012-09-09 12:53:00
8:53 AM,64.0,55.0,73,29.98,10.0,Calm,Calm,-,0.01,,Scattered Clouds,0,2012-09-09 13:53:00
9:53 AM,66.9,57.0,70,30.01,10.0,NW,5.8,-,N/A,,Scattered Clouds,320,2012-09-09 14:53:00
10:17 AM,66.2,57.2,73,30.01,10.0,Variable,4.6,-,N/A,,Overcast,0,2012-09-09 15:17:00
10:27 AM,68.0,57.2,68,30.02,10.0,NW,8.1,-,N/A,,Overcast,310,2012-09-09 15:27:00
10:53 AM,66.9,55.9,68,30.02,10.0,NNW,8.1,-,N/A,,Mostly Cloudy,330,2012-09-09 15:53:00
11:53 AM,68.0,57.0,68,30.02,10.0,NNW,10.4,19.6,N/A,,Mostly Cloudy,330,2012-09-09 16:53:00
12:53 PM,69.1,60.1,73,30.03,10.0,Variable,6.9,-,0.00,,Mostly Cloudy,0,2012-09-09 17:53:00
1:19 PM,64.4,57.2,77,30.05,2.5,Variable,6.9,26.5,0.05,Rain,Rain,0,2012-09-09 18:19:00
1:26 PM,64.4,59.0,83,30.05,3.0,NNE,5.8,-,0.05,Rain,Light Rain,30,2012-09-09 18:26:00
1:53 PM,66.9,57.0,70,30.05,10.0,Variable,5.8,-,0.05,,Mostly Cloudy,0,2012-09-09 18:53:00
2:53 PM,69.1,57.0,65,30.05,10.0,North,9.2,17.3,N/A,,Scattered Clouds,360,2012-09-09 19:53:00
3:53 PM,70.0,53.1,55,30.06,10.0,North,10.4,19.6,N/A,,Partly Cloudy,360,2012-09-09 20:53:00
4:53 PM,69.1,53.1,57,30.08,10.0,North,8.1,-,N/A,,Clear,350,2012-09-09 21:53:00
5:53 PM,66.9,53.1,61,30.10,10.0,North,6.9,-,N/A,,Scattered Clouds,10,2012-09-09 22:53:00
6:53 PM,64.0,52.0,65,30.10,10.0,North,3.5,-,N/A,,Clear,360,2012-09-09 23:53:00
7:53 PM,60.1,52.0,75,30.11,10.0,Calm,Calm,-,N/A,,Clear,0,2012-09-10 00:53:00
8:53 PM,59.0,51.1,75,30.13,10.0,Calm,Calm,-,N/A,,Clear,0,2012-09-10 01:53:00
9:53 PM,57.9,48.9,72,30.13,10.0,Calm,Calm,-,N/A,,Clear,0,2012-09-10 02:53:00
10:53 PM,54.0,48.9,83,30.14,10.0,Calm,Calm,-,N/A,,Clear,0,2012-09-10 03:53:00
11:53 PM,53.1,48.0,83,30.15,10.0,Calm,Calm,-,N/A,,Clear,0,2012-09-10 04:53:00